Time,TemperatureF,DewpointF,PressureIn,WindDirection,WindDirectionDegrees,WindSpeedMPH,WindSpeedGustMPH,Humidity,HourlyPrecipIn,Conditions,Clouds,dailyrainin,SoftwareType,DateUTC
2013-06-09 00:04:00,56.5,50.7,29.64,East,100,6.4,11.0,81,0.14, +RA,SKC,0.02,WeatherDisplay:10.37,2013-06-09 05:04:00,
2013-06-09 00:09:00,56.5,50.7,29.63,ESE,109,9.3,12.0,81,0.15, +RA,SKC,0.04,WeatherDisplay:10.37,2013-06-09 05:09:00,
2013-06-09 00:14:00,56.6,50.8,29.63,ESE,110,7.2,13.8,81,0.16, +RA,SKC,0.06,WeatherDisplay:10.37,2013-06-09 05:14:00,
2013-06-09 00:19:00,56.7,50.9,29.63,ESE,109,8.9,11.5,81,0.18, +RA,SKC,0.08,WeatherDisplay:10.37,2013-06-09 05:19:00,
2013-06-09 00:24:00,56.8,51.0,29.62,ESE,102,11.4,18.4,81,0.18, +RA,SKC,0.10,WeatherDisplay:10.37,2013-06-09 05:24:00,
2013-06-09 00:29:00,56.9,51.5,29.61,ESE,121,12.1,18.4,82,0.19, +RA,SKC,0.12,WeatherDisplay:10.37,2013-06-09 05:29:00,
2013-06-09 00:34:00,57.0,51.2,29.61,ESE,121,15.3,20.0,81,0.19, +RA,SKC,0.14,WeatherDisplay:10.37,2013-06-09 05:34:00,
2013-06-09 00:39:00,57.1,51.3,29.61,SE,146,13.8,21.0,81,0.19, +RA,SKC,0.15,WeatherDisplay:10.37,2013-06-09 05:39:00,
2013-06-09 00:44:00,57.1,51.3,29.60,East,94,14.5,19.6,81,0.18,-RA,SKC,0.15,WeatherDisplay:10.37,2013-06-09 05:44:00,
2013-06-09 00:49:00,57.2,51.4,29.60,East,97,16.0,20.7,81,0.17,-RA,SKC,0.15,WeatherDisplay:10.37,2013-06-09 05:49:00,
2013-06-09 00:54:00,57.4,51.6,29.60,ESE,113,15.9,20.7,81,0.15,-RA,SKC,0.15,WeatherDisplay:10.37,2013-06-09 05:54:00,
2013-06-09 00:59:00,57.4,51.6,29.59,ESE,108,16.0,23.0,81,0.15,-RA,SKC,0.15,WeatherDisplay:10.37,2013-06-09 05:59:00,
2013-06-09 01:04:00,57.6,51.8,29.59,SE,134,10.3,20.7,81,0.13,OVC,SKC,0.15,WeatherDisplay:10.37,2013-06-09 06:04:00,
2013-06-09 01:09:00,57.8,51.7,29.59,ESE,107,12.1,22.0,80,0.12,OVC,SKC,0.15,WeatherDisplay:10.37,2013-06-09 06:09:00,
2013-06-09 01:14:00,58.0,51.9,29.59,East,94,16.0,22.0,80,0.11,OVC,SKC,0.15,WeatherDisplay:10.37,2013-06-09 06:14:00,
2013-06-09 01:19:00,58.2,52.1,29.59,East,97,15.6,21.0,80,0.09,RA,SKC,0.16,WeatherDisplay:10.37,2013-06-09 06:19:00,
2013-06-09 01:24:00,58.2,51.7,29.58,East,84,7.5,17.3,79,0.07,-RA,SKC,0.16,WeatherDisplay:10.37,2013-06-09 06:24:00,
2013-06-09 01:29:00,58.2,52.1,29.58,ESE,110,5.0,17.3,80,0.05,-RA,SKC,0.16,WeatherDisplay:10.37,2013-06-09 06:29:00,
2013-06-09 01:34:00,58.1,51.6,29.58,ESE,109,12.3,17.0,79,0.03,-RA,SKC,0.16,WeatherDisplay:10.37,2013-06-09 06:34:00,
2013-06-09 01:39:00,58.3,51.8,29.58,ESE,103,12.7,16.0,79,0.02,-RA,SKC,0.16,WeatherDisplay:10.37,2013-06-09 06:39:00,
2013-06-09 01:44:00,58.5,52.0,29.57,East,100,9.0,16.1,79,0.01,OVC,SKC,0.16,WeatherDisplay:10.37,2013-06-09 06:44:00,
2013-06-09 01:49:00,58.6,51.8,29.57,East,87,6.8,13.8,78,0.01,OVC,SKC,0.16,WeatherDisplay:10.37,2013-06-09 06:49:00,
2013-06-09 01:54:00,58.7,51.5,29.57,ESE,107,10.0,17.3,77,0.01,OVC,SKC,0.16,WeatherDisplay:10.37,2013-06-09 06:54:00,
2013-06-09 01:59:00,59.0,51.8,29.56,East,94,6.5,17.0,77,0.01,OVC,SKC,0.16,WeatherDisplay:10.37,2013-06-09 06:59:00,
2013-06-09 02:04:00,59.1,51.5,29.56,ESE,111,8.2,17.0,76,0.01,OVC,SKC,0.16,WeatherDisplay:10.37,2013-06-09 07:04:00,
2013-06-09 02:09:00,59.1,51.5,29.56,East,83,7.3,19.6,76,0.01,OVC,SKC,0.16,WeatherDisplay:10.37,2013-06-09 07:09:00,
2013-06-09 02:14:00,59.1,51.2,29.56,ESE,105,10.3,14.0,75,0.01,OVC,SKC,0.16,WeatherDisplay:10.37,2013-06-09 07:14:00,
2013-06-09 02:19:00,59.1,51.2,29.55,ESE,114,7.4,19.6,75,0.00,OVC,SKC,0.16,WeatherDisplay:10.37,2013-06-09 07:19:00,
2013-06-09 02:24:00,59.1,51.2,29.55,East,94,8.2,17.3,75,0.00,OVC,SKC,0.16,WeatherDisplay:10.37,2013-06-09 07:24:00,
2013-06-09 02:29:00,59.1,51.2,29.55,East,96,12.2,15.0,75,0.00,OVC,SKC,0.16,WeatherDisplay:10.37,2013-06-09 07:29:00,
2013-06-09 02:34:00,59.0,51.1,29.56,ESE,112,12.2,17.3,75,0.00,OVC,SKC,0.16,WeatherDisplay:10.37,2013-06-09 07:34:00,
2013-06-09 02:39:00,58.9,51.0,29.55,SE,136,12.7,18.0,75,0.01,RA,SKC,0.17,WeatherDisplay:10.37,2013-06-09 07:39:00,
2013-06-09 02:44:00,58.8,50.9,29.56,ESE,106,11.8,17.0,75,0.01,RA,SKC,0.17,WeatherDisplay:10.37,2013-06-09 07:44:00,
2013-06-09 02:49:00,58.8,50.5,29.55,East,96,12.3,17.0,74,0.01,OVC,SKC,0.17,WeatherDisplay:10.37,2013-06-09 07:49:00,
2013-06-09 02:54:00,58.9,50.6,29.55,SSE,159,11.1,16.0,74,0.01,OVC,SKC,0.17,WeatherDisplay:10.37,2013-06-09 07:54:00,
2013-06-09 02:59:00,58.9,50.6,29.55,ESE,111,10.4,14.0,74,0.01,OVC,SKC,0.17,WeatherDisplay:10.37,2013-06-09 07:59:00,
2013-06-09 03:04:00,58.9,50.6,29.54,ESE,115,10.8,17.3,74,0.01,-RA,SKC,0.17,WeatherDisplay:10.37,2013-06-09 08:04:00,
2013-06-09 03:09:00,59.0,50.4,29.53,East,96,13.2,19.6,73,0.01,-RA,SKC,0.17,WeatherDisplay:10.37,2013-06-09 08:09:00,
2013-06-09 03:14:00,59.2,50.2,29.53,ESE,107,14.9,19.0,72,0.01,-RA,SKC,0.17,WeatherDisplay:10.37,2013-06-09 08:14:00,
2013-06-09 03:19:00,59.1,50.1,29.53,ESE,104,13.3,20.7,72,0.01,-RA,SKC,0.17,WeatherDisplay:10.37,2013-06-09 08:19:00,
2013-06-09 03:24:00,59.0,50.4,29.53,East,94,14.2,22.0,73,0.01,OVC,SKC,0.17,WeatherDisplay:10.37,2013-06-09 08:24:00,
2013-06-09 03:29:00,59.0,50.4,29.53,East,97,15.1,19.0,73,0.01,OVC,SKC,0.17,WeatherDisplay:10.37,2013-06-09 08:29:00,
2013-06-09 03:34:00,58.8,50.2,29.53,ESE,109,16.1,24.2,73,0.01,OVC,SKC,0.17,WeatherDisplay:10.37,2013-06-09 08:34:00,
2013-06-09 03:39:00,58.8,50.2,29.53,ESE,109,14.1,20.7,73,0.00,OVC,SKC,0.17,WeatherDisplay:10.37,2013-06-09 08:39:00,
2013-06-09 03:44:00,58.6,50.3,29.53,ESE,111,10.9,15.0,74,0.01,-RA,SKC,0.18,WeatherDisplay:10.37,2013-06-09 08:44:00,
2013-06-09 03:49:00,58.4,50.1,29.53,ESE,110,13.4,19.6,74,0.01,-RA,SKC,0.18,WeatherDisplay:10.37,2013-06-09 08:49:00,
2013-06-09 03:54:00,58.3,50.4,29.53,ESE,122,16.0,23.0,75,0.02,-RA,SKC,0.19,WeatherDisplay:10.37,2013-06-09 08:54:00,
2013-06-09 03:59:00,58.2,50.3,29.53,ESE,119,14.1,23.0,75,0.02,-RA,SKC,0.19,WeatherDisplay:10.37,2013-06-09 08:59:00,
2013-06-09 04:04:00,57.9,50.4,29.52,SE,140,14.0,19.6,76,0.03,RA,SKC,0.20,WeatherDisplay:10.37,2013-06-09 09:04:00,
2013-06-09 04:09:00,57.8,50.3,29.53,SE,128,15.4,24.0,76,0.03,RA,SKC,0.20,WeatherDisplay:10.37,2013-06-09 09:09:00,
2013-06-09 04:14:00,57.9,50.4,29.52,ESE,107,15.7,23.0,76,0.03,OVC,SKC,0.20,WeatherDisplay:10.37,2013-06-09 09:14:00,
2013-06-09 04:19:00,57.9,50.4,29.52,SE,145,12.4,18.4,76,0.03,OVC,SKC,0.20,WeatherDisplay:10.37,2013-06-09 09:19:00,
2013-06-09 04:24:00,57.9,50.0,29.52,East,99,17.3,22.0,75,0.03,OVC,SKC,0.20,WeatherDisplay:10.37,2013-06-09 09:24:00,
2013-06-09 04:29:00,58.0,50.1,29.52,ESE,105,16.5,24.0,75,0.03,OVC,SKC,0.20,WeatherDisplay:10.37,2013-06-09 09:29:00,
2013-06-09 04:34:00,58.0,50.1,29.51,ESE,121,16.1,21.0,75,0.03,OVC,SKC,0.20,WeatherDisplay:10.37,2013-06-09 09:34:00,
2013-06-09 04:39:00,58.1,50.2,29.51,ESE,105,13.9,23.0,75,0.03,OVC,SKC,0.20,WeatherDisplay:10.37,2013-06-09 09:39:00,
2013-06-09 04:44:00,58.2,50.3,29.51,ESE,114,16.3,26.0,75,0.02,OVC,SKC,0.20,WeatherDisplay:10.37,2013-06-09 09:44:00,
2013-06-09 04:49:00,58.1,50.2,29.51,SSE,157,13.5,19.6,75,0.02,OVC,SKC,0.20,WeatherDisplay:10.37,2013-06-09 09:49:00,
2013-06-09 04:54:00,58.1,50.2,29.51,SSE,155,15.1,21.0,75,0.01,OVC,SKC,0.20,WeatherDisplay:10.37,2013-06-09 09:54:00,
2013-06-09 04:59:00,58.1,50.2,29.51,ESE,105,12.7,20.7,75,0.01,OVC,SKC,0.20,WeatherDisplay:10.37,2013-06-09 09:59:00,
2013-06-09 05:04:00,58.1,50.2,29.51,East,100,15.1,21.0,75,0.00,OVC,SKC,0.20,WeatherDisplay:10.37,2013-06-09 10:04:00,
2013-06-09 05:09:00,58.2,50.3,29.51,ESE,110,16.1,22.0,75,0.00,OVC,SKC,0.20,WeatherDisplay:10.37,2013-06-09 10:09:00,
2013-06-09 05:14:00,58.2,50.0,29.50,ESE,109,14.3,23.0,74,0.00,OVC,SKC,0.20,WeatherDisplay:10.37,2013-06-09 10:14:00,
2013-06-09 05:19:00,58.2,50.0,29.50,ESE,105,16.6,23.0,74,0.00,OVC,SKC,0.20,WeatherDisplay:10.37,2013-06-09 10:19:00,
2013-06-09 05:24:00,58.1,50.2,29.50,ESE,108,15.5,21.9,75,0.00,RA,SKC,0.20,WeatherDisplay:10.37,2013-06-09 10:24:00,
2013-06-09 05:29:00,58.1,50.2,29.50,East,95,13.2,21.9,75,0.00,RA,SKC,0.20,WeatherDisplay:10.37,2013-06-09 10:29:00,
2013-06-09 05:34:00,58.1,50.2,29.50,SE,125,12.6,18.0,75,0.00,OVC,SKC,0.20,WeatherDisplay:10.37,2013-06-09 10:34:00,
2013-06-09 05:39:00,58.1,49.9,29.50,SE,143,12.7,19.6,74,0.00,OVC,SKC,0.20,WeatherDisplay:10.37,2013-06-09 10:39:00,
2013-06-09 05:44:00,58.1,49.9,29.50,East,90,12.8,16.1,74,0.00,OVC,SKC,0.20,WeatherDisplay:10.37,2013-06-09 10:44:00,
2013-06-09 05:49:00,58.1,49.9,29.50,SSE,147,11.4,18.4,74,0.00,OVC,SKC,0.20,WeatherDisplay:10.37,2013-06-09 10:49:00,
2013-06-09 05:54:00,58.2,50.0,29.50,SE,136,15.3,22.0,74,0.00,OVC,SKC,0.20,WeatherDisplay:10.37,2013-06-09 10:54:00,
2013-06-09 05:59:00,58.3,50.0,29.50,ESE,113,13.6,19.0,74,0.00,OVC,SKC,0.20,WeatherDisplay:10.37,2013-06-09 10:59:00,
2013-06-09 06:04:00,58.4,49.8,29.50,SSE,147,13.1,21.0,73,0.00,OVC,SKC,0.20,WeatherDisplay:10.37,2013-06-09 11:04:00,
2013-06-09 06:09:00,58.4,49.8,29.50,SE,129,12.3,21.9,73,0.00,OVC,SKC,0.20,WeatherDisplay:10.37,2013-06-09 11:09:00,
2013-06-09 06:14:00,58.4,49.8,29.51,ESE,116,12.6,17.3,73,0.00,OVC,SKC,0.20,WeatherDisplay:10.37,2013-06-09 11:14:00,
2013-06-09 06:19:00,58.3,50.0,29.51,SE,127,12.6,18.4,74,0.00,OVC,SKC,0.20,WeatherDisplay:10.37,2013-06-09 11:19:00,
2013-06-09 06:24:00,57.9,50.0,29.51,SE,132,16.6,22.0,75,0.00,OVC,SKC,0.20,WeatherDisplay:10.37,2013-06-09 11:24:00,
2013-06-09 06:29:00,57.6,50.1,29.51,SE,134,16.6,23.0,76,0.00,OVC,SKC,0.21,WeatherDisplay:10.37,2013-06-09 11:29:00,
2013-06-09 06:34:00,57.2,50.1,29.51,SE,125,16.2,20.0,77,0.01,RA,SKC,0.21,WeatherDisplay:10.37,2013-06-09 11:34:00,
2013-06-09 06:39:00,57.1,50.0,29.51,ENE,74,15.6,20.7,77,0.01,RA,SKC,0.21,WeatherDisplay:10.37,2013-06-09 11:39:00,
2013-06-09 06:44:00,57.2,50.1,29.51,SE,128,14.5,21.0,77,0.01,OVC,SKC,0.21,WeatherDisplay:10.37,2013-06-09 11:44:00,
2013-06-09 06:49:00,57.4,50.2,29.51,ESE,122,12.5,21.9,77,0.01,OVC,SKC,0.21,WeatherDisplay:10.37,2013-06-09 11:49:00,
2013-06-09 06:54:00,57.4,50.2,29.51,SE,134,11.2,16.0,77,0.01,OVC,SKC,0.21,WeatherDisplay:10.37,2013-06-09 11:54:00,
2013-06-09 06:59:00,57.3,50.1,29.51,ESE,123,11.3,18.4,77,0.01,OVC,SKC,0.21,WeatherDisplay:10.37,2013-06-09 11:59:00,
2013-06-09 07:04:00,57.2,50.1,29.51,SE,125,14.7,18.4,77,0.01,OVC,SKC,0.21,WeatherDisplay:10.37,2013-06-09 12:04:00,
2013-06-09 07:09:00,56.9,50.1,29.51,SE,133,12.1,15.0,78,0.02,RA,SKC,0.22,WeatherDisplay:10.37,2013-06-09 12:09:00,
2013-06-09 07:14:00,56.5,50.1,29.52,SE,140,13.9,20.0,79,0.03,RA,SKC,0.23,WeatherDisplay:10.37,2013-06-09 12:14:00,
2013-06-09 07:19:00,56.3,49.9,29.52,SE,125,13.2,17.3,79,0.03,RA,SKC,0.23,WeatherDisplay:10.37,2013-06-09 12:19:00,
2013-06-09 07:24:00,56.2,49.8,29.51,SE,134,10.6,13.0,79,0.03,OVC,SKC,0.23,WeatherDisplay:10.37,2013-06-09 12:24:00,
2013-06-09 07:29:00,56.2,50.1,29.51,SE,140,10.4,16.1,80,0.03,OVC,SKC,0.23,WeatherDisplay:10.37,2013-06-09 12:29:00,
2013-06-09 07:34:00,56.4,50.0,29.51,SE,125,9.5,13.8,79,0.02,OVC,SKC,0.23,WeatherDisplay:10.37,2013-06-09 12:34:00,
2013-06-09 07:39:00,56.6,50.2,29.51,SE,126,11.9,16.0,79,0.02,OVC,SKC,0.23,WeatherDisplay:10.37,2013-06-09 12:39:00,
2013-06-09 07:44:00,56.9,50.5,29.51,ESE,114,12.0,17.0,79,0.02,-DZ,SKC,0.23,WeatherDisplay:10.37,2013-06-09 12:44:00,
2013-06-09 07:49:00,57.1,50.3,29.51,ESE,123,12.0,16.1,78,0.02,-DZ,SKC,0.23,WeatherDisplay:10.37,2013-06-09 12:49:00,
2013-06-09 07:54:00,57.2,50.4,29.51,SE,136,13.6,17.3,78,0.02,-DZ,SKC,0.23,WeatherDisplay:10.37,2013-06-09 12:54:00,
2013-06-09 07:59:00,57.3,50.5,29.50,SE,134,12.2,16.1,78,0.02,-DZ,SKC,0.23,WeatherDisplay:10.37,2013-06-09 12:59:00,
2013-06-09 08:04:00,57.5,50.7,29.50,SE,141,12.1,18.4,78,0.02,OVC,SKC,0.23,WeatherDisplay:10.37,2013-06-09 13:04:00,
2013-06-09 08:09:00,57.6,50.4,29.50,SE,128,10.8,16.1,77,0.01,OVC,SKC,0.23,WeatherDisplay:10.37,2013-06-09 13:09:00,
2013-06-09 08:14:00,57.8,50.6,29.50,SE,136,10.7,15.0,77,0.00,OVC,SKC,0.23,WeatherDisplay:10.37,2013-06-09 13:14:00,
2013-06-09 08:19:00,57.9,50.7,29.50,SE,142,11.8,14.0,77,0.00,OVC,SKC,0.23,WeatherDisplay:10.37,2013-06-09 13:19:00,
2013-06-09 08:24:00,58.1,50.9,29.50,SE,146,11.0,16.1,77,0.00,OVC,SKC,0.23,WeatherDisplay:10.37,2013-06-09 13:24:00,
2013-06-09 08:29:00,58.2,51.0,29.50,SE,134,13.5,18.0,77,0.00,OVC,SKC,0.23,WeatherDisplay:10.37,2013-06-09 13:29:00,
2013-06-09 08:34:00,58.5,51.0,29.50,SE,131,9.7,15.0,76,0.00,OVC,SKC,0.23,WeatherDisplay:10.37,2013-06-09 13:34:00,
2013-06-09 08:39:00,58.8,51.2,29.50,SE,127,11.7,15.0,76,0.00,OVC,SKC,0.23,WeatherDisplay:10.37,2013-06-09 13:39:00,
2013-06-09 08:44:00,58.9,51.0,29.50,SE,133,11.8,17.3,75,0.00,OVC,SKC,0.23,WeatherDisplay:10.37,2013-06-09 13:44:00,
2013-06-09 08:49:00,59.1,51.2,29.50,SE,131,11.1,18.0,75,0.00,OVC,SKC,0.23,WeatherDisplay:10.37,2013-06-09 13:49:00,
2013-06-09 08:54:00,59.1,51.2,29.50,ESE,116,11.1,17.0,75,0.00,OVC,SKC,0.23,WeatherDisplay:10.37,2013-06-09 13:54:00,
2013-06-09 08:59:00,59.2,50.9,29.50,SE,136,13.3,17.0,74,0.00,OVC,SKC,0.23,WeatherDisplay:10.37,2013-06-09 13:59:00,
2013-06-09 09:04:00,59.1,51.2,29.49,ESE,109,9.8,13.0,75,0.00,OVC,SKC,0.23,WeatherDisplay:10.37,2013-06-09 14:04:00,
2013-06-09 09:10:00,59.1,51.2,29.49,SE,126,8.9,13.8,75,0.00,OVC,SKC,0.23,WeatherDisplay:10.37,2013-06-09 14:10:00,
2013-06-09 09:15:00,59.2,51.3,29.49,SE,131,9.1,15.0,75,0.00,OVC,SKC,0.23,WeatherDisplay:10.37,2013-06-09 14:15:00,
2013-06-09 09:20:00,59.4,51.5,29.49,ESE,121,10.0,13.8,75,0.00,OVC,SKC,0.23,WeatherDisplay:10.37,2013-06-09 14:20:00,
2013-06-09 09:25:00,59.5,51.6,29.49,SE,133,11.4,15.0,75,0.00,-RA,SKC,0.23,WeatherDisplay:10.37,2013-06-09 14:25:00,
2013-06-09 09:30:00,59.6,51.3,29.50,SE,126,10.4,16.1,74,0.00,-RA,SKC,0.23,WeatherDisplay:10.37,2013-06-09 14:30:00,
2013-06-09 09:35:00,59.7,51.4,29.50,SSE,150,11.5,15.0,74,0.00,-RA,SKC,0.23,WeatherDisplay:10.37,2013-06-09 14:35:00,
2013-06-09 09:40:00,59.8,51.5,29.49,SE,134,12.9,17.0,74,0.00,-RA,SKC,0.23,WeatherDisplay:10.37,2013-06-09 14:40:00,
2013-06-09 09:45:00,59.9,51.6,29.49,SE,132,12.0,18.0,74,0.00,OVC,SKC,0.23,WeatherDisplay:10.37,2013-06-09 14:45:00,
2013-06-09 09:50:00,60.0,51.7,29.49,SE,132,12.0,16.1,74,0.00,OVC,SKC,0.23,WeatherDisplay:10.37,2013-06-09 14:50:00,
2013-06-09 09:55:00,60.2,51.9,29.49,SE,133,10.4,14.0,74,0.00,OVC,SKC,0.23,WeatherDisplay:10.37,2013-06-09 14:55:00,
2013-06-09 10:00:00,60.3,52.0,29.49,SE,130,11.3,16.1,74,0.00,OVC,SKC,0.23,WeatherDisplay:10.37,2013-06-09 15:00:00,
2013-06-09 10:05:00,60.4,52.1,29.49,SE,133,12.7,17.0,74,0.00,-RA,SKC,0.23,WeatherDisplay:10.37,2013-06-09 15:05:00,
2013-06-09 10:10:00,60.5,52.2,29.49,SE,136,10.2,16.1,74,0.00,-RA,SKC,0.23,WeatherDisplay:10.37,2013-06-09 15:10:00,
2013-06-09 10:15:00,60.5,52.2,29.49,SE,144,11.4,16.1,74,0.00,-RA,SKC,0.23,WeatherDisplay:10.37,2013-06-09 15:15:00,
2013-06-09 10:20:00,60.4,52.1,29.50,SE,132,11.2,16.1,74,0.00,-RA,SKC,0.23,WeatherDisplay:10.37,2013-06-09 15:20:00,
2013-06-09 10:25:00,60.2,52.2,29.50,SE,133,9.4,13.8,75,0.00,OVC,SKC,0.23,WeatherDisplay:10.37,2013-06-09 15:25:00,
2013-06-09 10:30:00,60.0,52.4,29.50,SE,144,11.5,16.1,76,0.00,OVC,SKC,0.23,WeatherDisplay:10.37,2013-06-09 15:30:00,
2013-06-09 10:35:00,59.7,52.5,29.50,SE,144,13.8,17.3,77,0.00,OVC,SKC,0.23,WeatherDisplay:10.37,2013-06-09 15:35:00,
2013-06-09 10:40:00,59.5,52.6,29.50,SE,136,12.0,16.1,78,0.00,OVC,SKC,0.23,WeatherDisplay:10.37,2013-06-09 15:40:00,
2013-06-09 10:45:00,59.4,52.5,29.50,SE,138,13.7,18.0,78,0.00,OVC,SKC,0.24,WeatherDisplay:10.37,2013-06-09 15:45:00,
2013-06-09 10:50:00,59.2,52.7,29.50,SSE,167,10.7,14.0,79,0.01,RA,SKC,0.24,WeatherDisplay:10.37,2013-06-09 15:50:00,
2013-06-09 10:55:00,59.1,52.6,29.50,SE,132,12.6,17.0,79,0.01,RA,SKC,0.24,WeatherDisplay:10.37,2013-06-09 15:55:00,
2013-06-09 11:00:00,59.1,52.9,29.50,ESE,123,12.5,18.0,80,0.01,OVC,SKC,0.24,WeatherDisplay:10.37,2013-06-09 16:00:00,
2013-06-09 11:05:00,59.1,52.9,29.50,SE,132,12.6,15.0,80,0.01,-DZ,SKC,0.24,WeatherDisplay:10.37,2013-06-09 16:05:00,
2013-06-09 11:10:00,59.2,53.0,29.50,SE,124,11.4,17.0,80,0.01,-DZ,SKC,0.24,WeatherDisplay:10.37,2013-06-09 16:10:00,
2013-06-09 11:15:00,59.4,53.2,29.50,SE,138,12.1,16.0,80,0.01,-DZ,SKC,0.24,WeatherDisplay:10.37,2013-06-09 16:15:00,
2013-06-09 11:20:00,59.5,53.3,29.50,SE,138,9.8,18.4,80,0.01,-DZ,SKC,0.24,WeatherDisplay:10.37,2013-06-09 16:20:00,
2013-06-09 11:25:00,59.7,53.5,29.50,SE,139,11.9,16.1,80,0.01,OVC,SKC,0.24,WeatherDisplay:10.37,2013-06-09 16:25:00,
2013-06-09 11:30:00,59.9,54.1,29.50,SE,141,11.1,16.1,81,0.01,OVC,SKC,0.24,WeatherDisplay:10.37,2013-06-09 16:30:00,
2013-06-09 11:35:00,60.2,54.3,29.50,SE,130,11.0,16.0,81,0.01,OVC,SKC,0.24,WeatherDisplay:10.37,2013-06-09 16:35:00,
2013-06-09 11:40:00,60.6,54.7,29.50,SE,132,13.7,20.0,81,0.01,OVC,SKC,0.24,WeatherDisplay:10.37,2013-06-09 16:40:00,
2013-06-09 11:45:00,60.7,54.5,29.50,ESE,111,13.5,17.3,80,0.01,OVC,SKC,0.24,WeatherDisplay:10.37,2013-06-09 16:45:00,
2013-06-09 11:50:00,60.7,54.8,29.50,SE,139,10.2,12.7,81,0.00,OVC,SKC,0.24,WeatherDisplay:10.37,2013-06-09 16:50:00,
2013-06-09 11:55:00,60.8,54.6,29.50,ESE,119,10.7,15.0,80,0.00,OVC,SKC,0.24,WeatherDisplay:10.37,2013-06-09 16:55:00,
2013-06-09 12:00:00,60.8,54.6,29.50,SE,130,10.4,16.1,80,0.00,OVC,SKC,0.24,WeatherDisplay:10.37,2013-06-09 17:00:00,
2013-06-09 12:05:00,61.0,55.1,29.50,SE,142,9.5,17.3,81,0.00,OVC,SKC,0.24,WeatherDisplay:10.37,2013-06-09 17:05:00,
2013-06-09 12:10:00,61.2,55.0,29.50,SE,128,10.7,13.8,80,0.00,OVC,SKC,0.24,WeatherDisplay:10.37,2013-06-09 17:10:00,
2013-06-09 12:15:00,61.8,55.9,29.49,SE,140,10.5,15.0,81,0.00,OVC,SKC,0.24,WeatherDisplay:10.37,2013-06-09 17:15:00,
2013-06-09 12:20:00,62.7,56.8,29.49,SE,132,13.0,17.3,81,0.00,OVC,SKC,0.24,WeatherDisplay:10.37,2013-06-09 17:20:00,
2013-06-09 12:25:00,63.2,56.6,29.49,SE,138,12.0,16.0,79,0.00,OVC,SKC,0.24,WeatherDisplay:10.37,2013-06-09 17:25:00,
2013-06-09 12:30:00,63.0,56.4,29.49,SE,130,11.4,14.0,79,0.00,OVC,SKC,0.24,WeatherDisplay:10.37,2013-06-09 17:30:00,
2013-06-09 12:35:00,63.0,56.4,29.49,SE,127,11.0,17.3,79,0.00,OVC,SKC,0.24,WeatherDisplay:10.37,2013-06-09 17:35:00,
2013-06-09 12:40:00,62.7,56.1,29.49,SE,131,10.8,15.0,79,0.00,OVC,SKC,0.24,WeatherDisplay:10.37,2013-06-09 17:40:00,
2013-06-09 12:45:00,62.7,56.1,29.49,SSE,147,10.9,16.1,79,0.00,OVC,SKC,0.24,WeatherDisplay:10.37,2013-06-09 17:45:00,
2013-06-09 12:50:00,63.0,56.7,29.49,SE,134,10.8,14.0,80,0.00,OVC,SKC,0.24,WeatherDisplay:10.37,2013-06-09 17:50:00,
2013-06-09 12:55:00,63.6,57.3,29.49,SE,146,11.0,15.0,80,0.00,OVC,SKC,0.24,WeatherDisplay:10.37,2013-06-09 17:55:00,
2013-06-09 13:00:00,64.1,57.5,29.49,SE,126,13.4,18.4,79,0.00,OVC,SKC,0.24,WeatherDisplay:10.37,2013-06-09 18:00:00,
2013-06-09 13:05:00,64.3,57.6,29.49,SE,128,10.7,16.0,79,0.00,BKN,SKC,0.24,WeatherDisplay:10.37,2013-06-09 18:05:00,
2013-06-09 13:10:00,64.7,58.0,29.49,SE,138,11.3,15.0,79,0.00,BKN,SKC,0.24,WeatherDisplay:10.37,2013-06-09 18:10:00,
2013-06-09 13:15:00,65.8,58.7,29.49,SE,128,10.6,16.1,78,0.00,BKN,SKC,0.24,WeatherDisplay:10.37,2013-06-09 18:15:00,
2013-06-09 13:20:00,66.8,59.7,29.49,SE,130,12.0,17.3,78,0.00,BKN,SKC,0.24,WeatherDisplay:10.37,2013-06-09 18:20:00,
2013-06-09 13:25:00,67.2,59.4,29.49,SE,138,12.9,17.3,76,0.00,BKN,SKC,0.24,WeatherDisplay:10.37,2013-06-09 18:25:00,
2013-06-09 13:30:00,67.5,59.3,29.48,SE,144,13.5,17.3,75,0.00,BKN,SKC,0.24,WeatherDisplay:10.37,2013-06-09 18:30:00,
2013-06-09 13:35:00,67.2,59.0,29.48,SE,133,14.6,19.0,75,0.00,BKN,SKC,0.24,WeatherDisplay:10.37,2013-06-09 18:35:00,
2013-06-09 13:40:00,67.1,59.6,29.48,ESE,122,11.5,17.0,77,0.00,BKN,SKC,0.24,WeatherDisplay:10.37,2013-06-09 18:40:00,
2013-06-09 13:45:00,68.0,59.8,29.48,SSE,149,12.5,18.4,75,0.00,BKN,SKC,0.24,WeatherDisplay:10.37,2013-06-09 18:45:00,
2013-06-09 13:50:00,68.8,59.8,29.48,SE,136,13.9,18.4,73,0.00,BKN,SKC,0.24,WeatherDisplay:10.37,2013-06-09 18:50:00,
2013-06-09 13:55:00,68.8,59.8,29.48,SE,131,16.1,20.7,73,0.00,BKN,SKC,0.24,WeatherDisplay:10.37,2013-06-09 18:55:00,
2013-06-09 14:00:00,69.0,59.6,29.48,SE,132,14.6,19.6,72,0.00,BKN,SKC,0.24,WeatherDisplay:10.37,2013-06-09 19:00:00,
2013-06-09 14:05:00,68.7,59.3,29.48,ESE,123,15.6,20.7,72,0.00,BKN,SKC,0.24,WeatherDisplay:10.37,2013-06-09 19:05:00,
2013-06-09 14:10:00,69.0,60.0,29.47,ESE,114,10.6,14.0,73,0.00,BKN,SKC,0.24,WeatherDisplay:10.37,2013-06-09 19:10:00,
2013-06-09 14:15:00,68.7,59.7,29.47,SE,133,12.4,17.0,73,0.00,BKN,SKC,0.24,WeatherDisplay:10.37,2013-06-09 19:15:00,
2013-06-09 14:20:00,68.3,58.9,29.47,SE,125,13.4,17.3,72,0.00,BKN,SKC,0.24,WeatherDisplay:10.37,2013-06-09 19:20:00,
2013-06-09 14:25:00,68.3,59.3,29.47,SE,130,15.9,18.4,73,0.00,SCT,SKC,0.24,WeatherDisplay:10.37,2013-06-09 19:25:00,
2013-06-09 14:30:00,69.1,59.7,29.47,ESE,123,13.6,17.3,72,0.00,SCT,SKC,0.24,WeatherDisplay:10.37,2013-06-09 19:30:00,
2013-06-09 14:35:00,70.0,60.2,29.46,SE,142,12.6,18.4,71,0.00,SCT,SKC,0.24,WeatherDisplay:10.37,2013-06-09 19:35:00,
2013-06-09 14:40:00,70.3,60.4,29.46,SE,134,16.0,22.0,71,0.00,SCT,SKC,0.24,WeatherDisplay:10.37,2013-06-09 19:40:00,
2013-06-09 14:45:00,70.3,60.4,29.46,SE,138,13.3,20.7,71,0.00,SCT,SKC,0.24,WeatherDisplay:10.37,2013-06-09 19:45:00,
2013-06-09 14:50:00,70.6,60.3,29.45,SE,125,14.1,18.4,70,0.00,SCT,SKC,0.24,WeatherDisplay:10.37,2013-06-09 19:50:00,
2013-06-09 14:55:00,71.1,60.8,29.45,ESE,112,13.9,21.9,70,0.00,SCT,SKC,0.24,WeatherDisplay:10.37,2013-06-09 19:55:00,
2013-06-09 15:00:00,71.2,60.9,29.45,SE,136,12.1,17.3,70,0.00,SCT,SKC,0.24,WeatherDisplay:10.37,2013-06-09 20:00:00,
2013-06-09 15:05:00,71.6,61.3,29.45,SSE,163,14.2,18.4,70,0.00,SCT,SKC,0.24,WeatherDisplay:10.37,2013-06-09 20:05:00,
2013-06-09 15:10:00,71.8,61.5,29.46,SE,129,12.6,20.0,70,0.00,SCT,SKC,0.24,WeatherDisplay:10.37,2013-06-09 20:10:00,
2013-06-09 15:15:00,71.9,61.2,29.46,SE,133,15.5,20.0,69,0.00,SCT,SKC,0.24,WeatherDisplay:10.37,2013-06-09 20:15:00,
2013-06-09 15:20:00,71.8,61.1,29.46,SSE,149,15.9,20.7,69,0.00,SCT,SKC,0.24,WeatherDisplay:10.37,2013-06-09 20:20:00,
2013-06-09 15:25:00,71.4,61.1,29.46,SE,141,13.9,19.6,70,0.00,BKN,SKC,0.24,WeatherDisplay:10.37,2013-06-09 20:25:00,
2013-06-09 15:30:00,70.8,60.1,29.46,SSE,148,15.2,21.9,69,0.00,BKN,SKC,0.24,WeatherDisplay:10.37,2013-06-09 20:30:00,
2013-06-09 15:35:00,70.8,60.5,29.46,SE,136,9.2,12.0,70,0.00,BKN,SKC,0.24,WeatherDisplay:10.37,2013-06-09 20:35:00,
2013-06-09 15:40:00,70.6,60.3,29.47,SE,128,12.0,15.0,70,0.00,BKN,SKC,0.24,WeatherDisplay:10.37,2013-06-09 20:40:00,
2013-06-09 15:45:00,70.3,59.6,29.47,SSE,152,12.3,19.6,69,0.00,-RA,SKC,0.24,WeatherDisplay:10.37,2013-06-09 20:45:00,
2013-06-09 15:50:00,70.1,59.9,29.47,SE,125,14.5,19.0,70,0.00,-RA,SKC,0.24,WeatherDisplay:10.37,2013-06-09 20:50:00,
2013-06-09 15:55:00,69.9,59.7,29.47,SSE,155,15.4,18.0,70,0.00,-RA,SKC,0.24,WeatherDisplay:10.37,2013-06-09 20:55:00,
2013-06-09 16:01:00,69.4,59.2,29.48,SSE,148,18.8,21.9,70,0.00,-RA,SKC,0.24,WeatherDisplay:10.37,2013-06-09 21:01:00,
2013-06-09 16:06:00,68.8,58.6,29.48,SE,128,15.6,20.7,70,0.00,OVC,SKC,0.24,WeatherDisplay:10.37,2013-06-09 21:06:00,
2013-06-09 16:11:00,68.4,58.2,29.48,SE,138,16.4,21.9,70,0.00,OVC,SKC,0.24,WeatherDisplay:10.37,2013-06-09 21:11:00,
2013-06-09 16:16:00,67.7,57.6,29.49,South,180,11.4,16.1,70,0.00,OVC,SKC,0.24,WeatherDisplay:10.37,2013-06-09 21:16:00,
2013-06-09 16:21:00,65.9,57.0,29.48,South,178,10.0,22.0,73,0.00, +RA,SKC,0.25,WeatherDisplay:10.37,2013-06-09 21:21:00,
2013-06-09 16:26:00,64.3,56.2,29.48,South,171,14.6,20.0,75,0.01, +RA,SKC,0.25,WeatherDisplay:10.37,2013-06-09 21:26:00,
2013-06-09 16:31:00,63.5,55.8,29.48,South,178,9.3,11.5,76,0.03, +RA,SKC,0.27,WeatherDisplay:10.37,2013-06-09 21:31:00,
2013-06-09 16:36:00,63.1,55.8,29.48,South,174,7.0,21.0,77,0.00, +RA,SKC,0.28,WeatherDisplay:10.37,2013-06-09 21:36:00,
2013-06-09 16:41:00,63.0,55.7,29.48,South,172,10.8,15.0,77,0.04, +RA,SKC,0.28,WeatherDisplay:10.37,2013-06-09 21:41:00,
2013-06-09 16:46:00,62.8,55.8,29.48,SSE,162,9.4,12.7,78,0.05,RA,SKC,0.29,WeatherDisplay:10.37,2013-06-09 21:46:00,
2013-06-09 16:51:00,62.5,55.9,29.48,SSE,165,7.0,15.0,79,0.00,RA,SKC,0.30,WeatherDisplay:10.37,2013-06-09 21:51:00,
2013-06-09 16:56:00,62.4,55.8,29.48,SSE,157,4.4,6.0,79,0.06,RA,SKC,0.30,WeatherDisplay:10.37,2013-06-09 21:56:00,
2013-06-09 17:01:00,62.3,55.7,29.48,SSE,163,5.9,11.5,79,0.07,RA,SKC,0.31,WeatherDisplay:10.37,2013-06-09 22:01:00,
2013-06-09 17:06:00,62.3,56.0,29.48,SSE,165,6.0,12.0,80,0.00,RA,SKC,0.31,WeatherDisplay:10.37,2013-06-09 22:06:00,
2013-06-09 17:11:00,62.4,56.1,29.48,SE,145,4.0,6.0,80,0.07,SCT,SKC,0.31,WeatherDisplay:10.37,2013-06-09 22:11:00,
2013-06-09 17:16:00,62.5,56.2,29.48,ESE,121,3.3,5.0,80,0.07,SCT,SKC,0.31,WeatherDisplay:10.37,2013-06-09 22:16:00,
2013-06-09 17:21:00,62.5,56.2,29.48,SE,132,2.6,4.0,80,0.06,-RA,SKC,0.31,WeatherDisplay:10.37,2013-06-09 22:21:00,
2013-06-09 17:26:00,62.6,56.3,29.49,SE,132,4.0,5.8,80,0.06,-RA,SKC,0.31,WeatherDisplay:10.37,2013-06-09 22:26:00,
2013-06-09 17:31:00,62.7,56.4,29.49,SSE,150,3.5,4.6,80,0.04,-RA,SKC,0.31,WeatherDisplay:10.37,2013-06-09 22:31:00,
2013-06-09 17:36:00,63.0,56.8,29.49,SSE,154,5.0,6.0,80,0.00,-RA,SKC,0.31,WeatherDisplay:10.37,2013-06-09 22:36:00,
2013-06-09 17:41:00,63.9,57.6,29.48,SSE,154,7.1,10.4,80,0.03,-RA,SKC,0.31,WeatherDisplay:10.37,2013-06-09 22:41:00,
2013-06-09 17:46:00,65.2,58.2,29.49,SSE,160,9.0,11.5,78,0.02,-RA,SKC,0.31,WeatherDisplay:10.37,2013-06-09 22:46:00,
2013-06-09 17:51:00,65.8,58.4,29.48,SSE,159,6.7,9.2,77,0.01,-RA,SKC,0.31,WeatherDisplay:10.37,2013-06-09 22:51:00,
2013-06-09 17:56:00,66.3,58.9,29.48,SE,139,8.4,11.5,77,0.01,-RA,SKC,0.31,WeatherDisplay:10.37,2013-06-09 22:56:00,
2013-06-09 18:01:00,66.8,59.0,29.48,SSE,157,7.6,9.2,76,0.00,-RA,SKC,0.31,WeatherDisplay:10.37,2013-06-09 23:01:00,
2013-06-09 18:06:00,67.3,59.5,29.48,SSE,150,6.4,8.0,76,0.00,SCT,SKC,0.31,WeatherDisplay:10.37,2013-06-09 23:06:00,
2013-06-09 18:11:00,67.5,58.9,29.48,SSE,163,4.7,6.9,74,0.00,SCT,SKC,0.31,WeatherDisplay:10.37,2013-06-09 23:11:00,
2013-06-09 18:16:00,67.3,59.1,29.48,SSE,163,4.6,6.0,75,0.00,SCT,SKC,0.31,WeatherDisplay:10.37,2013-06-09 23:16:00,
2013-06-09 18:21:00,67.2,59.0,29.48,SSE,163,4.7,6.0,75,0.00,SCT,SKC,0.31,WeatherDisplay:10.37,2013-06-09 23:21:00,
2013-06-09 18:26:00,67.3,59.1,29.48,SSE,159,4.6,7.0,75,0.00,SCT,SKC,0.31,WeatherDisplay:10.37,2013-06-09 23:26:00,
2013-06-09 18:31:00,67.8,59.6,29.48,SE,135,8.5,11.0,75,0.00,SCT,SKC,0.31,WeatherDisplay:10.37,2013-06-09 23:31:00,
2013-06-09 18:36:00,68.2,59.6,29.48,SE,133,7.7,12.0,74,0.00,SCT,SKC,0.31,WeatherDisplay:10.37,2013-06-09 23:36:00,
2013-06-09 18:41:00,68.1,59.1,29.48,SE,132,8.5,12.7,73,0.00,SCT,SKC,0.31,WeatherDisplay:10.37,2013-06-09 23:41:00,
2013-06-09 18:46:00,68.0,59.0,29.48,SE,132,9.9,13.0,73,0.00,SCT,SKC,0.31,WeatherDisplay:10.37,2013-06-09 23:46:00,
2013-06-09 18:51:00,67.8,58.5,29.48,SE,136,12.0,14.0,72,0.00,SCT,SKC,0.31,WeatherDisplay:10.37,2013-06-09 23:51:00,
2013-06-09 18:56:00,67.6,58.6,29.49,SE,142,8.4,12.0,73,0.00,SCT,SKC,0.31,WeatherDisplay:10.37,2013-06-09 23:56:00,
2013-06-09 19:01:00,67.4,58.4,29.49,SE,141,8.6,11.5,73,0.00,SCT,SKC,0.31,WeatherDisplay:10.37,2013-06-10 00:01:00,
2013-06-09 19:06:00,67.4,58.8,29.49,SE,138,5.2,8.1,74,0.00,SCT,SKC,0.31,WeatherDisplay:10.37,2013-06-10 00:06:00,
2013-06-09 19:11:00,67.4,58.8,29.49,SE,134,5.5,9.2,74,0.00,SCT,SKC,0.31,WeatherDisplay:10.37,2013-06-10 00:11:00,
2013-06-09 19:16:00,67.4,58.4,29.49,SE,137,10.6,16.1,73,0.00,SCT,SKC,0.31,WeatherDisplay:10.37,2013-06-10 00:16:00,
2013-06-09 19:21:00,67.2,58.2,29.50,East,94,7.1,12.7,73,0.00,SCT,SKC,0.31,WeatherDisplay:10.37,2013-06-10 00:21:00,
2013-06-09 19:26:00,67.0,58.4,29.50,SE,134,6.9,10.4,74,0.00,BKN,SKC,0.31,WeatherDisplay:10.37,2013-06-10 00:26:00,
2013-06-09 19:31:00,67.0,58.1,29.50,SE,132,8.6,11.5,73,0.00,BKN,SKC,0.31,WeatherDisplay:10.37,2013-06-10 00:31:00,
2013-06-09 19:36:00,67.0,58.1,29.50,SE,127,6.8,9.2,73,0.00,BKN,SKC,0.31,WeatherDisplay:10.37,2013-06-10 00:36:00,
2013-06-09 19:41:00,66.9,58.3,29.50,ESE,123,4.7,8.1,74,0.00,OVC,SKC,0.31,WeatherDisplay:10.37,2013-06-10 00:41:00,
2013-06-09 19:46:00,66.8,58.2,29.50,SE,137,6.4,10.4,74,0.00,OVC,SKC,0.31,WeatherDisplay:10.37,2013-06-10 00:46:00,
2013-06-09 19:51:00,66.8,57.9,29.50,SE,133,6.9,9.2,73,0.00,OVC,SKC,0.31,WeatherDisplay:10.37,2013-06-10 00:51:00,
2013-06-09 19:56:00,66.7,57.8,29.50,SE,139,7.5,11.5,73,0.00,OVC,SKC,0.31,WeatherDisplay:10.37,2013-06-10 00:56:00,
2013-06-09 20:01:00,66.5,57.6,29.50,SE,132,7.4,11.5,73,0.00,OVC,SKC,0.31,WeatherDisplay:10.37,2013-06-10 01:01:00,
2013-06-09 20:06:00,66.3,57.8,29.50,SE,139,5.5,8.1,74,0.00,OVC,SKC,0.31,WeatherDisplay:10.37,2013-06-10 01:06:00,
2013-06-09 20:11:00,66.1,57.6,29.50,SE,130,5.2,7.0,74,0.00,OVC,SKC,0.31,WeatherDisplay:10.37,2013-06-10 01:11:00,
2013-06-09 20:16:00,65.8,57.3,29.50,SE,127,2.7,4.0,74,0.00,OVC,SKC,0.31,WeatherDisplay:10.37,2013-06-10 01:16:00,
2013-06-09 20:21:00,65.6,57.5,29.50,SE,130,3.1,4.0,75,0.00,BKN,SKC,0.31,WeatherDisplay:10.37,2013-06-10 01:21:00,
2013-06-09 20:26:00,65.3,57.2,29.50,ESE,122,3.3,4.6,75,0.00,BKN,SKC,0.31,WeatherDisplay:10.37,2013-06-10 01:26:00,
2013-06-09 20:31:00,65.1,57.3,29.50,ESE,121,2.5,4.0,76,0.00,BKN,SKC,0.31,WeatherDisplay:10.37,2013-06-10 01:31:00,
2013-06-09 20:36:00,64.9,57.2,29.50,SE,126,3.7,5.0,76,0.00,BKN,SKC,0.31,WeatherDisplay:10.37,2013-06-10 01:36:00,
2013-06-09 20:41:00,64.9,57.2,29.50,ESE,120,3.7,7.0,76,0.00,CLR,SKC,0.31,WeatherDisplay:10.37,2013-06-10 01:41:00,
2013-06-09 20:46:00,64.8,57.1,29.51,ESE,116,3.3,5.0,76,0.00,CLR,SKC,0.31,WeatherDisplay:10.37,2013-06-10 01:46:00,
2013-06-09 20:51:00,64.8,57.1,29.51,ESE,121,4.0,7.0,76,0.00,CLR,SKC,0.31,WeatherDisplay:10.37,2013-06-10 01:51:00,
2013-06-09 20:56:00,64.7,57.0,29.51,ESE,107,4.7,7.0,76,0.00,CLR,SKC,0.31,WeatherDisplay:10.37,2013-06-10 01:56:00,
2013-06-09 21:01:00,64.5,56.8,29.51,ESE,107,1.5,3.5,76,0.00,BKN,SKC,0.31,WeatherDisplay:10.37,2013-06-10 02:01:00,
2013-06-09 21:06:00,64.3,56.6,29.51,ESE,107,0.0,0.0,76,0.00,BKN,SKC,0.31,WeatherDisplay:10.37,2013-06-10 02:06:00,
2013-06-09 21:11:00,64.1,56.4,29.51,ESE,107,0.1,1.2,76,0.00,BKN,SKC,0.31,WeatherDisplay:10.37,2013-06-10 02:11:00,
2013-06-09 21:16:00,63.8,56.4,29.51,ESE,107,0.0,0.0,77,0.00,BKN,SKC,0.31,WeatherDisplay:10.37,2013-06-10 02:16:00,
2013-06-09 21:21:00,63.6,56.3,29.51,ESE,107,0.0,0.0,77,0.00,BKN,SKC,0.31,WeatherDisplay:10.37,2013-06-10 02:21:00,
2013-06-09 21:26:00,63.4,56.1,29.51,ESE,107,0.0,1.2,77,0.00,BKN,SKC,0.31,WeatherDisplay:10.37,2013-06-10 02:26:00,
2013-06-09 21:31:00,63.3,56.0,29.51,ESE,107,0.0,0.0,77,0.00,BKN,SKC,0.31,WeatherDisplay:10.37,2013-06-10 02:31:00,
2013-06-09 21:36:00,63.0,55.7,29.51,ESE,107,0.0,0.0,77,0.00,BKN,SKC,0.31,WeatherDisplay:10.37,2013-06-10 02:36:00,
2013-06-09 21:41:00,62.7,55.4,29.51,ESE,107,0.0,0.0,77,0.00,CLR,SKC,0.31,WeatherDisplay:10.37,2013-06-10 02:41:00,
2013-06-09 21:46:00,62.5,55.2,29.51,ESE,107,0.0,0.0,77,0.00,CLR,SKC,0.31,WeatherDisplay:10.37,2013-06-10 02:46:00,
2013-06-09 21:51:00,62.2,55.3,29.51,ESE,107,0.8,3.5,78,0.00,CLR,SKC,0.31,WeatherDisplay:10.37,2013-06-10 02:51:00,
2013-06-09 21:56:00,62.1,55.2,29.52,ESE,107,0.6,2.3,78,0.00,CLR,SKC,0.31,WeatherDisplay:10.37,2013-06-10 02:56:00,
2013-06-09 22:01:00,62.0,55.1,29.52,ESE,107,1.0,2.3,78,0.00,CLR,SKC,0.31,WeatherDisplay:10.37,2013-06-10 03:01:00,
2013-06-09 22:06:00,61.9,55.0,29.52,ESE,107,1.3,2.3,78,0.00,CLR,SKC,0.31,WeatherDisplay:10.37,2013-06-10 03:06:00,
2013-06-09 22:11:00,61.9,55.0,29.53,ESE,107,0.3,2.3,78,0.00,CLR,SKC,0.31,WeatherDisplay:10.37,2013-06-10 03:11:00,
2013-06-09 22:16:00,61.9,55.0,29.54,ESE,107,0.0,0.0,78,0.00,CLR,SKC,0.31,WeatherDisplay:10.37,2013-06-10 03:16:00,
2013-06-09 22:21:00,61.7,55.1,29.54,ESE,107,0.0,1.2,79,0.00,CLR,SKC,0.31,WeatherDisplay:10.37,2013-06-10 03:21:00,
2013-06-09 22:26:00,61.7,54.8,29.54,ESE,107,0.0,0.0,78,0.00,CLR,SKC,0.31,WeatherDisplay:10.37,2013-06-10 03:26:00,
2013-06-09 22:31:00,61.5,54.9,29.54,ESE,107,0.0,0.0,79,0.00,CLR,SKC,0.31,WeatherDisplay:10.37,2013-06-10 03:31:00,
2013-06-09 22:36:00,61.1,54.5,29.54,ESE,107,0.0,0.0,79,0.00,CLR,SKC,0.31,WeatherDisplay:10.37,2013-06-10 03:36:00,
2013-06-09 22:41:00,60.7,54.1,29.55,ESE,107,0.0,0.0,79,0.00,SCT,SKC,0.31,WeatherDisplay:10.37,2013-06-10 03:41:00,
2013-06-09 22:46:00,60.4,53.9,29.55,ESE,107,0.0,0.0,79,0.00,SCT,SKC,0.31,WeatherDisplay:10.37,2013-06-10 03:46:00,
2013-06-09 22:51:00,60.0,53.8,29.55,ESE,107,0.0,0.0,80,0.00,SCT,SKC,0.31,WeatherDisplay:10.37,2013-06-10 03:51:00,
2013-06-09 22:56:00,60.0,54.2,29.55,ESE,107,0.0,0.0,81,0.00,SCT,SKC,0.31,WeatherDisplay:10.37,2013-06-10 03:56:00,
2013-06-09 23:01:00,60.2,54.3,29.55,ESE,107,0.0,0.0,81,0.00,BKN,SKC,0.31,WeatherDisplay:10.37,2013-06-10 04:01:00,
2013-06-09 23:03:00,60.3,54.4,29.55,ESE,107,0.0,0.0,81,0.00,BKN,SKC,0.31,WeatherDisplay:10.37,2013-06-10 04:03:00,
2013-06-09 23:04:00,60.4,54.5,29.55,ESE,107,0.0,0.0,81,0.00,BKN,SKC,0.31,WeatherDisplay:10.37,2013-06-10 04:04:00,
2013-06-09 23:06:00,60.4,54.5,29.55,ESE,107,0.0,0.0,81,0.00,BKN,SKC,0.31,WeatherDisplay:10.37,2013-06-10 04:06:00,
2013-06-09 23:11:00,60.4,54.5,29.55,ESE,107,0.0,0.0,81,0.00,BKN,SKC,0.31,WeatherDisplay:10.37,2013-06-10 04:11:00,
2013-06-09 23:16:00,60.4,54.5,29.54,ESE,107,1.0,2.3,81,0.00,BKN,SKC,0.31,WeatherDisplay:10.37,2013-06-10 04:16:00,
2013-06-09 23:21:00,60.3,54.4,29.54,ESE,107,0.0,0.0,81,0.00,SCT,SKC,0.31,WeatherDisplay:10.37,2013-06-10 04:21:00,
2013-06-09 23:26:00,60.0,53.8,29.54,ESE,107,0.1,1.2,80,0.00,SCT,SKC,0.31,WeatherDisplay:10.37,2013-06-10 04:26:00,
2013-06-09 23:31:00,59.6,53.4,29.54,ESE,107,0.0,0.0,80,0.00,SCT,SKC,0.31,WeatherDisplay:10.37,2013-06-10 04:31:00,
2013-06-09 23:36:00,59.4,53.2,29.54,ESE,107,0.9,3.5,80,0.00,SCT,SKC,0.31,WeatherDisplay:10.37,2013-06-10 04:36:00,
2013-06-09 23:41:00,59.1,52.9,29.54,ESE,107,2.4,3.5,80,0.00,CLR,SKC,0.31,WeatherDisplay:10.37,2013-06-10 04:41:00,
2013-06-09 23:46:00,58.9,52.7,29.54,ESE,107,0.0,0.0,80,0.00,CLR,SKC,0.31,WeatherDisplay:10.37,2013-06-10 04:46:00,
2013-06-09 23:51:00,58.7,52.5,29.54,ESE,107,0.0,0.0,80,0.00,CLR,SKC,0.31,WeatherDisplay:10.37,2013-06-10 04:51:00,
2013-06-09 23:56:00,58.5,52.7,29.54,ESE,107,0.0,0.0,81,0.00,CLR,SKC,0.31,WeatherDisplay:10.37,2013-06-10 04:56:00,